Location: Home
(42.5358°N, 72.7383°W)
Time: 16:45:35
(UTC-05:00)

A-11 Canister half - Pass Details

Date: 01 December 2021
Orbit: 1516 x 1684 km, 47.2° (Epoch: 18 January)

Event Time Altitude Azimuth Distance (km) Brightness Sun altitude
Rises 11:23:43 0° 285° (WNW) 4,865 11.4 25.4°
Reaches altitude 10° 11:26:51 10° 287° (WNW) 3,896 11.0 25.5°
Maximum altitude 11:36:55 73° 13° (NNE) 1,739 9.5 25.6°
Drops below altitude 10° 11:47:07 10° 98° (E) 3,945 11.3 25.5°
Sets 11:50:18 0° 101° (E) 4,927 11.8 25.5°
